Hartsville, SC

3:27 AM EDT on June 25, 2017 (GMT -0400)
Hartsville Regional

Weather History for KHVS - November, 2013

Change the Weather History Date:

Saturday, November 16, 2013

  Actual Average (KFLO) Record (KFLO)
Temperature  
Mean Temperature 62 °F -  
Max Temperature 75 °F 66 °F 89 °F (1993)
Min Temperature 50 °F 42 °F 24 °F (1967)
Degree Days  
Heating Degree Days 2    
Growing Degree Days 12 (Base 50)    
Moisture  
Dew Point 57 °F    
Average Humidity 84    
Maximum Humidity 100    
Minimum Humidity 50    
Precipitation  
Precipitation 0.00 in - - ()
Sea Level Pressure  
Sea Level Pressure 30.22 in    
Wind  
Wind Speed 2 mph (NE)    
Max Wind Speed 7 mph    
Max Gust Speed -    
Visibility 9 miles    
Events      
Averages and records for this station are not official NWS values.
T = Trace of Precipitation, MM = Missing Value Source: NWS Daily Summary

Daily Weather History Graph

Daily Weather History Graph

Search for Another Location

Airport or City:

Trip Planner

Search our weather history database for the weather conditions in past years. The results will help you decide how hot, cold, wet, or windy it might be!

Date:

Astronomy

Nov. 16, 2013 Rise Set
Actual Time 6:54 AM EST 5:15 PM EST
Civil Twilight 6:28 AM EST 5:42 PM EST
Nautical Twilight 5:57 AM EST 6:12 PM EST
Astronomical Twilight 5:27 AM EST 6:42 PM EST
Moon 4:48 PM EST (11/16) 5:51 AM EST (11/16)
Length of Visible Light 11h 13m
Length of Day
10h 20m
Waxing Gibbous, 99% of the Moon is Illuminated
Nov 16
Waxing Gibbous
Nov 17
Full
Nov 25
Last Quarter
Dec 2
New
Dec 9
First Quarter

Hourly Weather History & Observations

Time (EST) Temp. Dew Point Humidity Pressure Visibility Wind Dir Wind Speed Gust Speed Precip Events Conditions
12:15 AM 57.2 °F 57.2 °F 100% 30.22 in 7.0 mi Calm Calm - N/A   Overcast
12:35 AM 57.2 °F 57.2 °F 100% 30.22 in 10.0 mi West 3.5 mph - N/A   Overcast
12:55 AM 57.2 °F 57.2 °F 100% 30.21 in 10.0 mi Calm Calm - N/A   Overcast
1:15 AM 57.2 °F 57.2 °F 100% 30.21 in 10.0 mi Calm Calm - N/A   Overcast
1:35 AM 57.2 °F 57.2 °F 100% 30.21 in 10.0 mi Calm Calm - N/A   Overcast
1:55 AM 57.2 °F 57.2 °F 100% 30.20 in 10.0 mi Calm Calm - N/A   Overcast
2:15 AM 57.2 °F 57.2 °F 100% 30.20 in 10.0 mi Calm Calm - N/A   Overcast
2:35 AM 57.2 °F 57.2 °F 100% 30.21 in 10.0 mi Calm Calm - N/A   Overcast
2:55 AM 59.0 °F 59.0 °F 100% 30.21 in 10.0 mi Calm Calm - N/A   Overcast
3:15 AM 57.2 °F 57.2 °F 100% 30.21 in 10.0 mi Calm Calm - N/A   Overcast
3:35 AM 57.2 °F 57.2 °F 100% 30.21 in 10.0 mi Calm Calm - N/A   Overcast
3:55 AM 57.2 °F 57.2 °F 100% 30.22 in 10.0 mi NNW 3.5 mph - N/A   Overcast
4:15 AM 55.4 °F 55.4 °F 100% 30.22 in 10.0 mi Calm Calm - N/A   Overcast
4:35 AM 55.4 °F 55.4 °F 100% 30.22 in 10.0 mi NNE 3.5 mph - N/A   Mostly Cloudy
4:55 AM 53.6 °F 53.6 °F 100% 30.21 in 10.0 mi NNE 4.6 mph - N/A   Mostly Cloudy
5:15 AM 53.6 °F 53.6 °F 100% 30.21 in 10.0 mi Calm Calm - N/A   Mostly Cloudy
5:35 AM 53.6 °F 53.6 °F 100% 30.21 in 7.0 mi Calm Calm - N/A   Scattered Clouds
5:55 AM 51.8 °F 51.8 °F 100% 30.21 in 5.0 mi Calm Calm - N/A   Clear
6:15 AM 51.8 °F 51.8 °F 100% 30.21 in 10.0 mi North 3.5 mph - N/A   Clear
6:35 AM 50.0 °F 50.0 °F 100% 30.22 in 7.0 mi Calm Calm - N/A   Clear
6:55 AM 50.0 °F 50.0 °F 100% 30.23 in 4.0 mi Calm Calm - N/A   Clear
7:15 AM 50.0 °F 50.0 °F 100% 30.23 in 2.5 mi NE 3.5 mph - N/A   Clear
7:35 AM 51.8 °F 51.8 °F 100% 30.23 in 3.0 mi NNE 3.5 mph - N/A   Clear
7:55 AM 53.6 °F - N/A% 30.24 in 7.0 mi NNE 3.5 mph - N/A   Scattered Clouds
8:15 AM 55.4 °F - N/A% 30.23 in 7.0 mi NNE 3.5 mph - N/A   Overcast
8:35 AM 57.2 °F 57.2 °F 100% 30.24 in 10.0 mi NE 4.6 mph - N/A   Overcast
8:55 AM 59.0 °F 59.0 °F 100% 30.25 in 5.0 mi NNE 4.6 mph - N/A   Overcast
9:15 AM 59.0 °F 59.0 °F 100% 30.26 in 3.0 mi NE 4.6 mph - N/A   Overcast
9:35 AM 60.8 °F 60.8 °F 100% 30.26 in 7.0 mi NE 5.8 mph - N/A   Mostly Cloudy
9:55 AM 62.6 °F 57.2 °F 82% 30.26 in 10.0 mi East 3.5 mph - N/A   Scattered Clouds
10:15 AM 64.4 °F 57.2 °F 77% 30.26 in 10.0 mi Calm Calm - N/A   Clear
10:35 AM 64.4 °F 57.2 °F 77% 30.26 in 10.0 mi Calm Calm - N/A   Clear
10:55 AM 66.2 °F 57.2 °F 73% 30.26 in 10.0 mi Calm Calm - N/A   Clear
11:15 AM 68.0 °F 57.2 °F 68% 30.26 in 10.0 mi NNE 3.5 mph - N/A   Clear
11:35 AM 69.8 °F 57.2 °F 64% 30.25 in 10.0 mi NE 4.6 mph - N/A   Clear
11:55 AM 71.6 °F 57.2 °F 60% 30.24 in 7.0 mi NE 4.6 mph - N/A   Clear
12:15 PM 71.6 °F 55.4 °F 57% 30.23 in 10.0 mi Calm Calm - N/A   Scattered Clouds
12:35 PM 71.6 °F 55.4 °F 57% 30.23 in 10.0 mi Calm Calm - N/A   Clear
12:55 PM 73.4 °F 55.4 °F 53% 30.22 in 10.0 mi Calm Calm - N/A   Scattered Clouds
1:15 PM 73.4 °F 55.4 °F 53% 30.22 in 10.0 mi NE 3.5 mph - N/A   Overcast
1:35 PM 73.4 °F 55.4 °F 53% 30.21 in 10.0 mi NNE 3.5 mph - N/A   Overcast
1:55 PM 75.2 °F 55.4 °F 50% 30.20 in 7.0 mi North 4.6 mph - N/A   Overcast
2:15 PM 71.6 °F 55.4 °F 57% 30.20 in 10.0 mi Calm Calm - N/A   Overcast
2:35 PM 71.6 °F 55.4 °F 57% 30.19 in 10.0 mi Calm Calm - N/A   Overcast
2:55 PM 73.4 °F 55.4 °F 53% 30.18 in 10.0 mi NE 5.8 mph - N/A   Mostly Cloudy
3:15 PM 73.4 °F 55.4 °F 53% 30.18 in 10.0 mi NNE 4.6 mph - N/A   Scattered Clouds
3:35 PM 71.6 °F 55.4 °F 57% 30.18 in 7.0 mi Calm Calm - N/A   Scattered Clouds
3:55 PM 71.6 °F 55.4 °F 57% 30.18 in 10.0 mi Calm Calm - N/A   Scattered Clouds
4:15 PM 68.0 °F 57.2 °F 68% 30.18 in 10.0 mi Calm Calm - N/A   Clear
4:35 PM 68.0 °F 59.0 °F 73% 30.19 in 10.0 mi Calm Calm - N/A   Clear
4:55 PM 64.4 °F 59.0 °F 83% 30.20 in 10.0 mi Calm Calm - N/A   Clear
5:15 PM 62.6 °F 57.2 °F 82% 30.19 in 10.0 mi Calm Calm - N/A   Scattered Clouds
5:35 PM 62.6 °F 55.4 °F 77% 30.19 in 10.0 mi Calm Calm - N/A   Clear
5:55 PM 60.8 °F 57.2 °F 88% 30.19 in 7.0 mi NE 3.5 mph - N/A   Clear
6:15 PM 60.8 °F 59.0 °F 94% 30.19 in 10.0 mi NE 3.5 mph - N/A   Clear
6:35 PM 62.6 °F 57.2 °F 82% 30.19 in 10.0 mi NE 4.6 mph - N/A   Clear
6:55 PM 62.6 °F 57.2 °F 82% 30.19 in 10.0 mi NE 3.5 mph - N/A   Clear
7:15 PM 62.6 °F 57.2 °F 82% 30.20 in 10.0 mi NNE 3.5 mph - N/A   Clear
7:35 PM 62.6 °F 57.2 °F 82% 30.21 in 10.0 mi Calm Calm - N/A   Clear
7:55 PM 60.8 °F 57.2 °F 88% 30.21 in 10.0 mi Calm Calm - N/A   Mostly Cloudy
8:15 PM 62.6 °F 59.0 °F 88% 30.22 in 10.0 mi North 3.5 mph - N/A   Overcast
8:35 PM 64.4 °F 59.0 °F 83% 30.22 in 10.0 mi Calm Calm - N/A   Overcast
8:55 PM 62.6 °F 59.0 °F 88% 30.23 in 10.0 mi Calm Calm - N/A   Overcast
9:15 PM 62.6 °F 59.0 °F 88% 30.22 in 10.0 mi Calm Calm - N/A   Overcast
9:35 PM 62.6 °F 57.2 °F 82% 30.23 in 10.0 mi ENE 4.6 mph - N/A   Overcast
9:55 PM 62.6 °F 57.2 °F 82% 30.23 in 10.0 mi ENE 6.9 mph - N/A   Overcast
10:15 PM 62.6 °F 57.2 °F 82% 30.22 in 10.0 mi ENE 6.9 mph - N/A   Scattered Clouds
10:35 PM 60.8 °F 57.2 °F 88% 30.23 in 10.0 mi NE 5.8 mph - N/A   Clear
10:55 PM 60.8 °F 57.2 °F 88% 30.23 in 10.0 mi NE 4.6 mph - N/A   Clear
11:15 PM 59.0 °F 59.0 °F 100% 30.22 in 10.0 mi NE 4.6 mph - N/A   Clear
11:35 PM 59.0 °F 59.0 °F 100% 30.22 in 10.0 mi ENE 4.6 mph - N/A   Clear
11:55 PM 59.0 °F 59.0 °F 100% 30.21 in 10.0 mi ENE 5.8 mph - N/A   Clear